Weather in Afanasjevo

Russia / Kirov Oblast     58°51′53″N   53°15′04″E
temp.,
°C
wind,
m/s
gust,
m/s
humid.,
%
clouds,
%
prec.,
mm/h
press.,
hPa
HPBL,
m
25 february, thu
thu2500:00−28nnw11990 0.0 103219
03:00−29w11970 0.0 103219
06:00−30sw11970 0.0 103119
09:00−23s13920 0.0 1030152
12:00−17sse24870 0.0 1027383
15:00−17sse35894 0.0 1026414
18:00−22sse36970 0.0 1024117
21:00−25sse38950 0.0 1024163
26 february, fri
fri2600:00−27se37940 0.0 1024135
03:00−27se38960 0.0 1024143
06:00−28se379711 0.0 1023162
09:00−24sse379750 0.0 1023257
12:00−19se489398 0.0 1021438
15:00−18sse499299 0.0 1019520
18:00−20se41296100 0.0 1017445
21:00−20se41395100 0.0 1015437
27 february, sat
sat2700:00−20se51394100 0.0 1012461
03:00−18se51493100 0.0 1010551
06:00−18ese51392100 0.0 1008592
09:00−17ese51192100 0.1 1008511
12:00−14ese41093100 0.2 1007557
15:00−14e4992100 0.4 1007622
18:00−15e4993100 0.1 1008593
21:00−17ene4994100 0.2 1009440
28 february, sun
sun2800:00−20ene3897100 0.0 1009310
03:00−22ene3898100 0.1 1010238
06:00−24ne3799100 0.0 1011186
09:00−21ne369793 0.0 1012272
12:00−17ne359393 0.0 1012435
15:00−16ne369297 0.1 1013508
18:00−20nne2399100 0.0 101442
21:00−21nne2310090 0.1 101665
1 march, mon
mon100:00−21n2310093 0.0 101761
03:00−22n2310095 0.1 101944
06:00−23n2210069 0.0 102021
09:00−18nnw239763 0.0 1020157
12:00−11wnw128872 0.0 1019357
15:00−10wsw359169 0.0 1018428
18:00−12sw3894100 0.0 1016294
21:00−13sw4119299 0.0 1013346